Location: Crescent
(42.8242°N, 73.7329°W)
Time: 15:56:44
(UTC+00:00)

Courier 1B - Pass Details

Date: 21 February 2026
Orbit: 962 x 1208 km, 28.3° (Epoch: 7 March)

Event Time Altitude Azimuth Distance (km) Brightness Sun altitude
Rises 00:18:53 0° 235° (SW) 3,841 11.4 -20.1°
Reaches altitude 10° 00:22:07 10° 222° (SW) 2,930 10.5 -20.6°
Maximum altitude 00:27:40 24° 171° (S) 2,136 9.1 -21.7°
Enters shadow 00:29:53 21° 146° (SSE) 2,311 9.1 -22.1°
